User: anonymous
Location: Kailua
(21.4020°N, 157.7390°W)
Time: 13:30:04
(UTC-10:00)
Language:

Cosmos 2221 Rocket - Orbit

View from above orbital plane
View from above orbital plane
View from above satellite
View from above satellite

Ground track
Ground track

The orbit data is extracted from the following two-line orbital elements,

1 22237U 92080B   14259.32321190  .00000337  00000-0  43628-4 0  4307
2 22237 082.5142 332.2883 0018695 247.9248 159.6888 14.77899591174999
Epoch (UTC): 16 September 2014 07:45:25
Eccentricity: 0.0018695
inclination: 82.5142°
perigee height: 623 km
apogee height: 649 km
right ascension of ascending node: 332.2883°
argument of perigee: 247.9248°
revolutions per day: 14.77899591
mean anomaly at epoch: 159.6888°
orbit number at epoch: 17499

The dashed part of the orbit path shows where the satellite is in the earth's shadow,  

DLR